Total_Precipitation_Accumulation
0.05 0.09 0.14 0.19 0.17 0.13 0.09 0.06 0.08 0.11 0.21 0.27 0.35 0.30 0.29 0.31 0.29 0.28 0.21 0.16 0.16 0.16 0.17 0.24 0.29 0.32 0.39 0.46 0.58 0.60 0.69 0.73 0.75 0.81 0.87 0.90 0.90 0.90 0.85 0.84 0.83 0.87 0.88 0.85
0.04 0.07 0.10 0.13 0.16 0.11 0.08 0.07 0.06 0.09 0.20 0.27 0.28 0.23 0.26 0.26 0.30 0.27 0.23 0.21 0.22 0.24 0.24 0.24 0.26 0.32 0.40 0.43 0.52 0.65 0.82 0.90 0.94 1.08 1.18 1.21 1.26 1.28 1.20 1.11 1.14 1.19 1.15 1.06
0.07 0.10 0.11 0.15 0.14 0.12 0.12 0.11 0.10 0.15 0.23 0.25 0.29 0.31 0.43 0.43 0.41 0.42 0.35 0.33 0.33 0.35 0.33 0.31 0.30 0.34 0.40 0.47 0.59 0.74 0.93 1.10 1.22 1.34 1.46 1.54 1.59 1.59 1.50 1.48 1.50 1.49 1.39 1.23
0.12 0.15 0.20 0.17 0.18 0.15 0.16 0.18 0.18 0.22 0.29 0.37 0.47 0.53 0.62 0.66 0.54 0.48 0.41 0.36 0.35 0.42 0.43 0.40 0.43 0.49 0.56 0.67 0.82 0.98 1.14 1.32 1.49 1.50 1.51 1.56 1.60 1.54 1.53 1.59 1.61 1.57 1.47 1.34
0.22 0.23 0.21 0.22 0.25 0.25 0.27 0.35 0.35 0.41 0.47 0.58 0.63 0.56 0.54 0.50 0.42 0.34 0.32 0.34 0.35 0.40 0.48 0.54 0.54 0.60 0.68 0.71 0.82 1.00 1.16 1.24 1.31 1.40 1.50 1.55 1.54 1.58 1.60 1.61 1.50 1.38 1.31 1.28
0.35 0.36 0.35 0.34 0.39 0.35 0.36 0.62 0.60 0.55 0.57 0.61 0.64 0.73 0.65 0.49 0.41 0.38 0.34 0.33 0.35 0.37 0.42 0.51 0.59 0.61 0.64 0.71 0.83 1.01 1.15 1.18 1.18 1.29 1.42 1.50 1.52 1.52 1.49 1.47 1.44 1.39 1.31 1.29
0.49 0.51 0.42 0.40 0.35 0.34 0.54 0.71 0.63 0.64 0.68 0.69 0.75 0.79 0.70 0.54 0.45 0.40 0.38 0.36 0.38 0.43 0.44 0.46 0.54 0.59 0.68 0.78 0.85 0.90 0.99 1.07 1.15 1.29 1.39 1.43 1.47 1.47 1.46 1.46 1.48 1.48 1.40 1.31
0.62 0.74 0.71 0.53 0.43 0.56 0.70 0.60 0.68 0.71 0.65 0.66 0.65 0.58 0.51 0.48 0.52 0.48 0.41 0.38 0.39 0.46 0.55 0.58 0.58 0.59 0.63 0.66 0.67 0.74 0.79 0.84 0.88 0.99 1.12 1.18 1.27 1.28 1.32 1.29 1.25 1.23 1.22 1.16
0.80 0.86 0.70 0.63 0.64 0.66 0.64 0.56 0.59 0.65 0.64 0.65 0.66 0.58 0.45 0.40 0.41 0.47 0.47 0.43 0.43 0.46 0.51 0.52 0.56 0.62 0.69 0.68 0.66 0.66 0.66 0.66 0.68 0.73 0.89 1.03 1.08 1.07 1.10 1.11 1.09 1.06 1.07 1.04
0.94 0.97 0.87 0.81 0.77 0.67 0.65 0.62 0.56 0.62 0.72 0.73 0.69 0.59 0.49 0.42 0.34 0.31 0.30 0.29 0.35 0.39 0.46 0.49 0.48 0.51 0.57 0.61 0.62 0.66 0.66 0.65 0.65 0.70 0.80 1.05 1.18 1.12 1.06 1.04 1.00 0.99 0.94 0.93
0.95 1.05 0.89 0.81 0.78 0.76 0.72 0.68 0.65 0.66 0.74 0.74 0.63 0.58 0.52 0.42 0.32 0.27 0.24 0.22 0.25 0.29 0.32 0.32 0.33 0.37 0.40 0.45 0.52 0.56 0.54 0.51 0.52 0.58 0.71 0.91 1.07 1.06 0.93 0.90 0.89 0.89 0.86 0.85
0.90 0.88 0.90 0.92 0.85 0.81 0.83 0.82 0.76 0.72 0.77 0.75 0.64 0.55 0.46 0.36 0.27 0.25 0.23 0.22 0.25 0.28 0.32 0.34 0.35 0.40 0.44 0.47 0.54 0.59 0.56 0.53 0.52 0.54 0.62 0.82 1.02 1.07 0.87 0.71 0.70 0.70 0.65 0.63
0.75 0.72 0.78 0.83 0.81 0.86 0.92 0.89 0.86 0.83 0.79 0.71 0.67 0.55 0.39 0.32 0.26 0.24 0.23 0.23 0.26 0.29 0.33 0.38 0.42 0.39 0.37 0.42 0.51 0.56 0.55 0.52 0.49 0.49 0.53 0.64 0.87 1.11 1.14 0.88 0.67 0.58 0.47 0.38
0.65 0.67 0.76 0.81 0.84 0.90 0.92 0.85 0.82 0.83 0.80 0.72 0.65 0.56 0.45 0.37 0.32 0.29 0.30 0.33 0.36 0.39 0.41 0.43 0.41 0.38 0.37 0.42 0.47 0.50 0.52 0.48 0.44 0.42 0.43 0.51 0.72 1.01 1.20 1.18 1.01 0.76 0.48 0.31
0.67 0.74 0.75 0.69 0.75 0.78 0.79 0.72 0.68 0.74 0.72 0.67 0.58 0.49 0.43 0.40 0.41 0.41 0.41 0.47 0.54 0.52 0.47 0.46 0.42 0.37 0.37 0.42 0.44 0.44 0.46 0.44 0.40 0.40 0.40 0.45 0.63 0.90 1.11 1.19 1.13 1.01 0.73 0.41
0.62 0.64 0.58 0.57 0.67 0.75 0.75 0.67 0.61 0.65 0.62 0.58 0.54 0.48 0.44 0.41 0.41 0.42 0.47 0.58 0.72 0.72 0.60 0.52 0.47 0.42 0.41 0.42 0.41 0.37 0.36 0.30 0.25 0.27 0.31 0.36 0.47 0.70 0.96 1.10 1.05 0.99 0.84 0.49
0.61 0.58 0.53 0.53 0.62 0.74 0.75 0.70 0.65 0.64 0.61 0.58 0.57 0.54 0.52 0.52 0.51 0.53 0.61 0.68 0.71 0.68 0.60 0.56 0.49 0.42 0.41 0.41 0.39 0.34 0.30 0.26 0.18 0.17 0.26 0.31 0.38 0.56 0.81 0.99 0.96 0.89 0.77 0.46
0.51 0.46 0.44 0.43 0.49 0.58 0.60 0.56 0.55 0.54 0.55 0.58 0.59 0.55 0.57 0.62 0.68 0.78 0.83 0.83 0.74 0.59 0.51 0.50 0.43 0.37 0.35 0.32 0.29 0.27 0.26 0.25 0.22 0.23 0.29 0.32 0.37 0.54 0.77 0.91 0.88 0.83 0.74 0.52
0.34 0.34 0.34 0.31 0.32 0.34 0.34 0.34 0.33 0.33 0.35 0.40 0.43 0.43 0.45 0.50 0.59 0.73 0.79 0.89 0.93 0.77 0.53 0.38 0.33 0.29 0.27 0.21 0.21 0.22 0.21 0.23 0.23 0.25 0.29 0.29 0.39 0.57 0.72 0.80 0.79 0.75 0.65 0.54
0.28 0.27 0.26 0.25 0.23 0.21 0.22 0.22 0.21 0.21 0.24 0.29 0.29 0.28 0.30 0.35 0.47 0.65 0.77 0.87 0.93 0.83 0.61 0.41 0.29 0.23 0.18 0.14 0.14 0.18 0.22 0.25 0.27 0.29 0.31 0.38 0.49 0.61 0.67 0.67 0.65 0.64 0.60 0.60
0.24 0.23 0.20 0.18 0.14 0.11 0.11 0.11 0.09 0.11 0.16 0.19 0.18 0.17 0.21 0.28 0.39 0.59 0.89 1.08 0.94 0.74 0.57 0.44 0.31 0.20 0.14 0.13 0.12 0.15 0.19 0.23 0.29 0.35 0.39 0.44 0.54 0.63 0.65 0.63 0.57 0.55 0.56 0.59
0.24 0.20 0.16 0.14 0.10 0.09 0.09 0.08 0.07 0.09 0.11 0.13 0.13 0.14 0.19 0.28 0.39 0.50 0.69 0.99 1.02 0.90 0.64 0.44 0.32 0.21 0.16 0.14 0.12 0.14 0.17 0.20 0.25 0.31 0.35 0.39 0.49 0.58 0.57 0.52 0.48 0.48 0.51 0.58
0.23 0.18 0.15 0.12 0.10 0.08 0.07 0.06 0.06 0.08 0.09 0.10 0.11 0.14 0.19 0.28 0.41 0.66 0.79 0.75 0.82 0.91 0.70 0.49 0.39 0.29 0.19 0.15 0.17 0.18 0.19 0.24 0.31 0.34 0.32 0.35 0.38 0.44 0.48 0.45 0.47 0.48 0.53 0.55
0.22 0.17 0.13 0.10 0.09 0.09 0.10 0.08 0.08 0.09 0.09 0.09 0.08 0.10 0.16 0.28 0.37 0.49 0.67 0.74 0.76 0.81 0.64 0.48 0.38 0.29 0.23 0.21 0.24 0.29 0.34 0.41 0.42 0.37 0.32 0.33 0.35 0.39 0.45 0.45 0.42 0.46 0.50 0.52
0.19 0.13 0.10 0.09 0.09 0.09 0.08 0.07 0.08 0.09 0.09 0.09 0.10 0.11 0.13 0.21 0.37 0.52 0.62 0.68 0.79 0.84 0.72 0.56 0.43 0.37 0.32 0.34 0.38 0.48 0.54 0.47 0.40 0.35 0.32 0.32 0.36 0.41 0.43 0.46 0.49 0.49 0.49 0.49
0.15 0.12 0.10 0.08 0.07 0.07 0.07 0.07 0.09 0.09 0.10 0.12 0.13 0.14 0.18 0.23 0.32 0.44 0.54 0.60 0.66 0.76 0.71 0.54 0.38 0.34 0.35 0.40 0.46 0.51 0.50 0.44 0.38 0.36 0.35 0.37 0.40 0.43 0.43 0.46 0.50 0.49 0.49 0.50
0.11 0.11 0.11 0.10 0.08 0.08 0.08 0.11 0.13 0.13 0.15 0.20 0.24 0.26 0.29 0.33 0.37 0.44 0.50 0.55 0.57 0.57 0.53 0.42 0.31 0.30 0.30 0.32 0.36 0.39 0.40 0.41 0.40 0.39 0.40 0.42 0.44 0.45 0.42 0.40 0.40 0.40 0.39 0.40